Weather in Acquaviva

San Marino     43°56′21″N   12°26′33″E
temp.,
°C
wind,
m/s
gust,
m/s
humid.,
%
clouds,
%
prec.,
mm/h
press.,
hPa
HPBL,
m
2 december, thu
thu201:00+9ssw3679100 0.0 1004102
04:00+10ssw4878100 0.0 1001169
07:00+10ssw3482100 0.0 100064
10:00+12ssw3875100 0.4 999546
13:00+12sw1576100 0.8 997338
16:00+7wnw3496100 7.9 997235
19:00+8nnw1191100 8.6 997102
22:00+8ne119023 0.1 99953
3 december, fri
fri301:00+7s228699 0.1 100051
04:00+6wsw2288100 0.3 100246
07:00+6wnw3494100 1.9 1005182
10:00+7w359098 0.6 1008280
13:00+8wnw3482100 1.0 1009537
16:00+8nne586599 0.4 1011842
19:00+6n257442 0.4 1014311
22:00+5wnw468439 0.0 1015412
4 december, sat
sat401:00+4w34878 0.0 1015141
04:00+3w2383100 0.0 101480
07:00+4sw227772 0.0 101250
10:00+6s1167100 0.0 1012182
13:00+7s1166100 0.0 1009110
16:00+7s3768100 0.0 1007318
19:00+6s3578100 0.3 1006180
22:00+8wnw2382100 0.3 1004108
5 december, sun
sun501:00+7wnw3486100 0.4 1003157
04:00+5nw479018 0.1 1004196
07:00+3nnw3494100 0.1 1004252
10:00+4nne019098 0.0 1005217
13:00+6nnw328068 0.1 1004522
16:00+6n127999 0.5 1005401
19:00+6ese0184100 0.9 1006103
22:00+5nnw2291100 0.6 1006175
6 december, mon
mon601:00+3w3495100 5.3 1007308
04:00+3wsw3697100 4.3 1006414
07:00+1ssw359998 27.4 1009246
10:00+3w3496100 2.6 1012192
13:00+4n2694100 4.9 1013334
16:00+5nne2685100 1.4 1014251
19:00+6ne6117596 1.8 1016442
22:00+6ne71270100 0.1 1018518